HK2201 SKRG-SKMD

Flight info

Callsign HK2201
Flight time 0h 16m
Altitude 12000
Route RNG DCT RG901 DCT MD402 DCT ISTAX
Aircraft PA31/L-SDFGRY/S

Departure

Time 2026-05-06 17:40
Airport Jose Maria Córdova International Airport (SKRG)

Arrival

Time 2026-05-06 17:57
Airport Enrique Olaya Herrera Airport (SKMD)
Time Latitude Longitude Altitude Speed Heading
2026-05-06 17:33 6.18049 -75.42557 7024 ft 0 kts 120°
2026-05-06 17:35 6.18049 -75.42556 7024 ft 2 kts 119°
2026-05-06 17:35 6.18035 -75.42519 7024 ft 9 kts 110°
2026-05-06 17:35 6.18023 -75.42441 7023 ft 13 kts 92°
2026-05-06 17:36 6.18023 -75.42415 7023 ft 0 kts 88°
2026-05-06 17:36 6.18023 -75.42397 7023 ft 8 kts 90°
2026-05-06 17:37 6.17999 -75.42325 7023 ft 14 kts 162°
2026-05-06 17:37 6.17973 -75.42323 7023 ft 0 kts 180°
2026-05-06 17:37 6.17909 -75.42323 7022 ft 24 kts 179°
2026-05-06 17:37 6.17654 -75.42321 7019 ft 47 kts 180°
2026-05-06 17:38 6.17279 -75.42320 7016 ft 60 kts 180°
2026-05-06 17:38 6.16837 -75.42315 7008 ft 67 kts 181°
2026-05-06 17:38 6.16374 -75.42312 7041 ft 64 kts 176°
2026-05-06 17:38 6.15932 -75.42313 7016 ft 63 kts 177°
2026-05-06 17:39 6.15486 -75.42274 7039 ft 63 kts 173°
2026-05-06 17:39 6.15056 -75.42226 7086 ft 62 kts 168°
2026-05-06 17:39 6.14628 -75.42139 7130 ft 64 kts 167°
2026-05-06 17:39 6.14196 -75.41993 7180 ft 73 kts 158°
2026-05-06 17:40 6.13728 -75.41787 7321 ft 73 kts 150°
2026-05-06 17:40 6.13606 -75.41324 7391 ft 83 kts 62°
2026-05-06 17:40 6.14078 -75.40993 7519 ft 86 kts 16°
2026-05-06 17:40 6.14691 -75.41120 7593 ft 96 kts 340°
2026-05-06 17:41 6.15329 -75.41363 7690 ft 99 kts 338°
2026-05-06 17:41 6.15954 -75.41650 7789 ft 98 kts 337°
2026-05-06 17:41 6.16557 -75.41961 7885 ft 101 kts 337°
2026-05-06 17:41 6.17229 -75.42186 7960 ft 102 kts 351°
2026-05-06 17:42 6.17940 -75.42303 8029 ft 104 kts 356°
2026-05-06 17:42 6.18655 -75.42394 8082 ft 104 kts 355°
2026-05-06 17:42 6.19377 -75.42479 8112 ft 106 kts 358°
2026-05-06 17:42 6.20109 -75.42542 8134 ft 106 kts 360°
2026-05-06 17:43 6.20840 -75.42584 8182 ft 101 kts
2026-05-06 17:43 6.21557 -75.42645 8191 ft 103 kts 358°
2026-05-06 17:43 6.22265 -75.42688 8237 ft 101 kts
2026-05-06 17:43 6.22953 -75.42764 8321 ft 100 kts 352°
2026-05-06 17:44 6.23633 -75.42949 8423 ft 101 kts 347°
2026-05-06 17:44 6.24292 -75.43172 8469 ft 100 kts 342°
2026-05-06 17:44 6.24955 -75.43423 8486 ft 102 kts 340°
2026-05-06 17:44 6.25624 -75.43698 8491 ft 105 kts 343°
2026-05-06 17:45 6.26290 -75.43980 8507 ft 103 kts 340°
2026-05-06 17:45 6.26951 -75.44273 8547 ft 106 kts 340°
2026-05-06 17:45 6.27627 -75.44574 8609 ft 106 kts 338°
2026-05-06 17:45 6.28321 -75.44863 8650 ft 109 kts 340°
2026-05-06 17:46 6.29025 -75.45153 8650 ft 110 kts 338°
2026-05-06 17:46 6.29703 -75.45483 8698 ft 107 kts 339°
2026-05-06 17:46 6.30380 -75.45813 8698 ft 111 kts 336°
2026-05-06 17:46 6.31063 -75.46198 8684 ft 110 kts 334°
2026-05-06 17:47 6.31781 -75.46586 8479 ft 127 kts 333°
2026-05-06 17:47 6.32542 -75.47022 8256 ft 129 kts 337°
2026-05-06 17:47 6.33325 -75.47441 8112 ft 128 kts 332°
2026-05-06 17:47 6.34098 -75.47931 7945 ft 134 kts 326°
2026-05-06 17:48 6.34635 -75.48683 7760 ft 134 kts 290°
2026-05-06 17:48 6.34825 -75.49595 7650 ft 136 kts 272°
2026-05-06 17:48 6.34739 -75.50554 7533 ft 139 kts 256°
2026-05-06 17:48 6.34462 -75.51485 7436 ft 140 kts 251°
2026-05-06 17:49 6.34144 -75.52402 7372 ft 138 kts 249°
2026-05-06 17:49 6.33759 -75.53269 7340 ft 134 kts 241°
2026-05-06 17:49 6.33213 -75.54002 7340 ft 131 kts 219°
2026-05-06 17:49 6.32455 -75.54450 7353 ft 124 kts 197°
2026-05-06 17:50 6.31655 -75.54723 7328 ft 119 kts 195°
2026-05-06 17:50 6.30867 -75.54960 7294 ft 117 kts 194°
2026-05-06 17:50 6.30099 -75.55195 7296 ft 116 kts 194°
2026-05-06 17:50 6.29329 -75.55428 7298 ft 115 kts 190°
2026-05-06 17:51 6.28559 -75.55620 7342 ft 112 kts 189°
2026-05-06 17:51 6.27799 -75.55787 7394 ft 110 kts 188°
2026-05-06 17:51 6.27040 -75.55904 7411 ft 112 kts 184°
2026-05-06 17:51 6.26254 -75.56018 7407 ft 114 kts 185°
2026-05-06 17:52 6.25461 -75.56131 7427 ft 114 kts 185°
2026-05-06 17:52 6.24670 -75.56246 7425 ft 116 kts 183°
2026-05-06 17:52 6.23856 -75.56246 7340 ft 122 kts 172°
2026-05-06 17:52 6.23002 -75.56150 7275 ft 121 kts 173°
2026-05-06 17:53 6.22172 -75.56159 7237 ft 120 kts 184°
2026-05-06 17:53 6.21354 -75.56304 7183 ft 119 kts 188°
2026-05-06 17:53 6.20549 -75.56460 7149 ft 118 kts 187°
2026-05-06 17:53 6.19739 -75.56597 7138 ft 116 kts 187°
2026-05-06 17:54 6.18944 -75.56738 7166 ft 118 kts 187°
2026-05-06 17:54 6.18109 -75.56939 7103 ft 126 kts 195°
2026-05-06 17:54 6.17296 -75.57257 7073 ft 123 kts 201°
2026-05-06 17:54 6.16618 -75.57705 6996 ft 115 kts 234°
2026-05-06 17:55 6.16572 -75.58457 6902 ft 114 kts 300°
2026-05-06 17:55 6.17250 -75.58915 6567 ft 127 kts 335°
2026-05-06 17:55 6.18001 -75.59211 6330 ft 111 kts 342°
2026-05-06 17:55 6.18726 -75.59415 6045 ft 107 kts 350°
2026-05-06 17:56 6.19462 -75.59497 5704 ft 104 kts
2026-05-06 17:56 6.20151 -75.59415 5362 ft 98 kts 12°
2026-05-06 17:56 6.20820 -75.59281 5093 ft 100 kts 15°
2026-05-06 17:56 6.21469 -75.59156 4929 ft 89 kts 15°
2026-05-06 17:57 6.22034 -75.59048 4883 ft 77 kts 15°
2026-05-06 17:57 6.22527 -75.58954 4865 ft 68 kts 13°
2026-05-06 17:57 6.22863 -75.58888 4863 ft 20 kts 13°
2026-05-06 17:57 6.22895 -75.58882 4863 ft 9 kts 189°
2026-05-06 17:58 6.22800 -75.58897 4863 ft 20 kts 192°
2026-05-06 17:58 6.22686 -75.58921 4865 ft 20 kts 192°
2026-05-06 17:58 6.22641 -75.58875 4865 ft 9 kts 71°
2026-05-06 17:58 6.22575 -75.58854 4866 ft 16 kts 188°
2026-05-06 17:59 6.22434 -75.58882 4868 ft 25 kts 193°
2026-05-06 17:59 6.22275 -75.58913 4869 ft 15 kts 192°
2026-05-06 17:59 6.22146 -75.58936 4873 ft 23 kts 192°
2026-05-06 17:59 6.21996 -75.58966 4876 ft 25 kts 189°
2026-05-06 18:00 6.21812 -75.59001 4886 ft 28 kts 191°
2026-05-06 18:00 6.21749 -75.58986 4888 ft 9 kts 97°
2026-05-06 18:00 6.21695 -75.58929 4888 ft 11 kts 195°
2026-05-06 18:00 6.21659 -75.58963 4891 ft 13 kts 269°
2026-05-06 18:01 6.21612 -75.59038 4899 ft 9 kts 194°
2026-05-06 18:01 6.21561 -75.59049 4900 ft 13 kts 184°
2026-05-06 18:01 6.21525 -75.59032 4902 ft 8 kts 103°
2026-05-06 18:01 6.21511 -75.58964 4906 ft 14 kts 104°
2026-05-06 18:02 6.21492 -75.58859 4906 ft 9 kts 126°
2026-05-06 18:02 6.21437 -75.58858 4906 ft 2 kts 143°
2026-05-06 18:02 6.21450 -75.58831 4905 ft 2 kts